一网星座-0709星 (ONEWEB-0709)

导读 | 豆包AI

ONEWEB-0709是英国OneWeb公司的低轨宽带通信卫星,于北京时间2023年1月10日由SpaceX猎鹰9号火箭在美国卡纳维拉尔角发射入轨,属于OneWeb全球卫星星座组网的一部分。该卫星重约148公斤,运行在1200公里近地轨道,配备Ku/ka波段天线,旨在为全球提供无缝互联网接入服务,覆盖航空、海事、应急通信等领域,助力OneWeb实现全球卫星宽带网络覆盖目标。

基本信息
目录编号:
55172
目录名称:
ONEWEB-0709
国际标识:
2023-004AJ
轨道中心:
EARTH
卫星名称:
一网星座-0709星
卫星全名:
一网星座-0709星 (ONEWEB-0709)
卫星状态:
在轨 (已飞行1159 天)
发射日期:
2023-01-10 UTC
国别 :
英国 (GB)
星等 :
--
轨道信息
数据来源 国际轨道数据 AOE轨道数据
星历时间 2026-03-14T05:49:58+0800
15小时前
查看轨道信息
2026-03-12T09:00:00+0800
2天前
查看轨道信息
半长轴 7595.832km 7595.823km
偏心率 0.0002718 0.0003478
轨道倾角 87.886° 87.888°
近地点辐角 84.858° 100.730°
升交点赤经 40.025° 40.395°
平近点角 275.286° 85.328°
近地点 1215.63km 1215.044km
远地点 1219.76km 1220.328km
周期 109.805分钟 109.805分钟
每日圈数 13.114138 13.114163
详细信息
平衡模式:
三轴稳定
覆盖范围:
全球
运营商:
一网卫星公司
运营商所在国:
英国
制造商(研发单位):
一网卫星公司
制造商所在国:
英国
使用方式:
暂无
卫星简介
OneWeb卫星网络由648颗重约125公斤的微型卫星组成,运行在1200公里的轨道上。 每颗卫星都能够提供至少每秒8千兆位的吞吐量,以使用其高吞吐量的Ku频段有效载荷为家庭和移动平台提供互联网接入。该卫星仍在工作。
2D轨道图
3D轨道图
轨道高度分析图
轨道倾角分析图
轨道综合分析图
查看轨道综合分析图